Skip Page Navigation
NASA JPL Caltech
NASA Logo - Jet Propulsion Laboratory + View the NASA Portal
+ Near-Earth Object (NEO) Program
Search JPL
JPL Home Earth Solar System Stars & Galaxies Technology
JPL Solar System Dynamics
BODIES ORBITS EPHEMERIDES TOOLS PHYSICAL DATA DISCOVERY FAQ SITE MAP
JPL Small-Body Database Browser
Search: [ help ]  
10410 (1997 XR9)
Classification: Main-belt Asteroid          SPK-ID: 2010410
Ephemeris | Orbit Diagram | Orbital Elements | Physical Parameters | Discovery Circumstances | Close-Approach Data ]

[ show orbit diagram ]
Orbital Elements at Epoch 2457400.5 (2016-Jan-13.0) TDB
Reference: JPL 18 (heliocentric ecliptic J2000)
 Element Value Uncertainty (1-sigma)   Units 
e .1407208527986925 5.2406e-08  
a 3.163669588464972 3.4664e-08 au
q 2.718475306002893 1.6009e-07 au
i 7.928410924574689 7.5016e-06 deg
node 36.21403797185499 4.0343e-05 deg
peri 266.549612547079 4.9054e-05 deg
M 185.5348001947047 2.9103e-05 deg
tp 2458396.573573006137
(2018-Oct-05.07357301)
0.00017131 JED
period 2055.346777938495
5.63
3.378e-05
9.248e-08
d
yr
n .1751529249779828 2.8787e-09 deg/d
Q 3.608863870927051 3.9542e-08 au
  Orbit Determination Parameters
   # obs. used (total)      1074  
   data-arc span      13765 days (37.69 yr)  
   first obs. used      1978-04-11  
   last obs. used      2015-12-18  
   planetary ephem.      DE431  
   SB-pert. ephem.      SB431-BIG16  
   condition code      0  
   fit RMS      .50915  
   data source      ORB  
   producer      Otto Matic  
   solution date      2016-Jan-04 13:14:16  

Additional Information
 Earth MOID = 1.71662 au 
 Jupiter MOID = 1.684 au 
 T_jup = 3.174 
[ show covariance matrix ]

Ephemeris | Orbit Diagram | Orbital Elements | Physical Parameters | Discovery Circumstances | Close-Approach Data ]

Physical Parameter Table
Parameter Symbol Value Units Sigma Reference Notes
absolute magnitude H 12.4 mag n/a MPO319215  

10410 (1997 XR9)          Discovered 1997-Dec-04 by Beijing Schmidt CCD Asteroid Program at Xinglong
Reference: 19990402/Numbers.arcLast Updated: 2004-04-19

[ show close-approach data ]
Alternate Designations
 1997 XR9 = 1978 GH4 = 1978 JZ3 = 1980 UT = 1999 CB18 
Ephemeris | Orbit Diagram | Orbital Elements | Physical Parameters | Discovery Circumstances | Close-Approach Data ]
ABOUT SSD CREDITS/AWARDS PRIVACY/COPYRIGHT GLOSSARY LINKS
FirstGov 2016-Feb-12 05:40 UT
(server date/time)  
NASA Home Page
Site Manager:   Ryan S. Park
Webmaster  Alan B. Chamberlin